AO-07 1 07530U 74089B 19325.73173906 -.00000028 00000-0 10971-3 0 9991 2 07530 101.7684 291.9147 0012505 46.4941 76.4271 12.53640843 60074 UO-11 1 14781U 84021B 19325.14561119 .00000076 00000-0 15367-4 0 9993 2 14781 97.6014 342.4299 0008940 159.7914 200.3656 14.83121577921801 LO-19 1 20442U 90005G 19324.82444075 -.00000000 00000-0 16298-4 0 9990 2 20442 98.6657 266.6710 0012722 55.2409 304.9970 14.32938325558596 HUBBLE 1 20580U 90037B 19325.86593576 .00000466 00000-0 17433-4 0 9991 2 20580 28.4694 259.1912 0002671 11.1458 26.0224 15.09302102424509 MET-2/21 1 22782U 93055A 19325.20094741 .00000005 00000-0 -93542-5 0 9994 2 22782 82.5514 39.6579 0023633 101.9129 313.2834 13.83823868324370 AO-27 1 22825U 93061C 19325.03525091 .00000011 00000-0 22140-4 0 9998 2 22825 98.9156 317.3118 0007378 266.6471 93.3866 14.30071585364158 IO-26 1 22826U 93061D 19325.21054781 .00000010 00000-0 21974-4 0 9995 2 22826 98.9097 317.4634 0007935 253.1495 106.8817 14.30405911364388 FO-29 1 24278U 96046B 19324.83254322 -.00000043 00000-0 -75556-5 0 9998 2 24278 098.5611 097.3754 0350126 197.7028 161.1655 13.53094848148532 NOAA-15 1 25338U 98030A 19325.54342359 .00000022 00000-0 27688-4 0 9995 2 25338 98.7367 346.4545 0011033 145.7544 214.4349 14.25940029119466 GO-32 1 25397U 98043D 19325.29135534 -.00000010 00000-0 15108-4 0 9993 2 25397 98.7045 263.6444 0000833 4.0276 356.0909 14.23674630110014 ISS 1 25544U 98067A 19325.96420461 .00000736 00000-0 20899-4 0 9990 2 25544 51.6453 299.0383 0006320 308.7001 156.0497 15.50022212199731 NO-44 1 26931U 01043C 19325.47871117 -.00000014 00000-0 26585-4 0 9991 2 26931 67.0508 321.6698 0007413 265.5445 94.4809 14.30559278947255 SO-50 1 27607U 02058C 19325.22363176 -.00000028 00000-0 16912-4 0 9991 2 27607 64.5548 294.0712 0071991 226.1009 133.4136 14.75589945909981 CO-55 1 27844U 03031E 19325.48639045 .00000058 00000-0 45781-4 0 9993 2 27844 98.6844 331.3732 0008940 303.7672 56.2654 14.22206465850437 CO-57 1 27848U 03031J 19325.52303730 .00000045 00000-0 40095-4 0 9990 2 27848 98.6916 331.9397 0008959 316.7887 43.2587 14.21797897850283 RS-22 1 27939U 03042A 19325.71802813 .00000140 00000-0 33802-4 0 9994 2 27939 98.0626 98.7054 0011730 296.2328 63.7680 14.66819372863419 NOAA-18 1 28654U 05018A 19325.55100869 .00000068 00000-0 61568-4 0 9997 2 28654 99.0764 14.7054 0015220 99.5477 260.7415 14.12468295747526 CO-58 1 28895U 05043F 19325.37258249 .00000144 00000-0 36495-4 0 9994 2 28895 97.9813 102.9821 0016078 216.6641 143.3462 14.63712681750253 Falconsat-3 1 30776U 07006E 19325.05099187 .00002332 00000-0 64690-4 0 9994 2 30776 35.4334 178.7458 0001563 66.1623 293.9267 15.36811602704592 CO-65 1 32785U 08021C 19325.25702165 .00000261 00000-0 33685-4 0 9992 2 32785 97.5583 317.7058 0014539 105.3838 254.8987 14.88376857626829 AAUSAT2 1 32788U 08021F 19325.01942722 .00000302 00000-0 32644-4 0 9994 2 32788 97.4936 333.8609 0012723 44.2889 315.9348 14.94860741628126 DO-64 1 32789U 08021G 19325.71207627 .00000904 00000-0 63875-4 0 9998 2 32789 97.4466 10.5392 0010894 316.6401 43.3970 15.07269287630462 CO-66 1 32791U 08021J 19325.01254615 .00000473 00000-0 53248-4 0 9997 2 32791 97.5323 323.5741 0014854 81.4363 278.8538 14.90914244627256 RS-30 1 32953U 08025A 19325.70279752 .00000021 00000-0 75656-4 0 9992 2 32953 82.5070 47.7365 0020166 147.8159 212.4164 12.43092293521696 PRISM 1 33493U 09002B 19325.23103822 .00000786 00000-0 74081-4 0 9999 2 33493 98.1273 252.1078 0016114 33.0885 327.1340 14.96814275588412 NOAA-19 1 33591U 09005A 19325.47040278 .00000023 00000-0 37924-4 0 9991 2 33591 99.1905 320.4440 0013222 304.2955 55.6963 14.12384008555898 TISAT-1 1 36799U 10035E 19325.02651069 .00000224 00000-0 28671-4 0 9998 2 36799 98.1737 122.5356 0011093 299.4960 60.5150 14.91206836507917 JUGNU 1 37839U 11058B 19325.70939833 .00000317 00000-0 27167-4 0 9995 2 37839 19.9606 108.6529 0018884 247.2850 231.4305 14.12664806419348 SRMSAT 1 37841U 11058D 19325.83887932 .00000294 00000-0 16613-4 0 9992 2 37841 19.9700 167.8790 0011906 111.8870 355.3496 14.10643680418766 AO-71 1 37854U 11061E 19325.49696716 .00001881 00000-0 10259-3 0 9992 2 37854 101.7108 303.8810 0159759 323.0059 36.0221 15.06797688440456 HRBE 1 37855U 11061F 19325.50567020 .00001826 00000-0 98120-4 0 9993 2 37855 101.7231 301.1494 0172563 334.8665 24.4220 15.05802062440221 ALMASAT-1 1 38078U 12006B 19325.15793750 .00054078 50176-5 21738-3 0 9994 2 38078 69.4193 178.0904 0117790 16.9112 120.4344 15.76494460421869 HORYU-2 1 38340U 12025D 19325.11569569 .00000176 00000-0 33744-4 0 9999 2 38340 98.3116 8.2278 0011201 355.3639 4.7464 14.75776807404087 RS-40 1 38735U 12041C 19325.42815557 .00000002 00000-0 -55689-4 0 9991 2 38735 82.4723 131.0042 0016380 256.5728 103.3539 12.42579664331892 BEESAT-3 1 39135U 13015F 19325.26386270 .00001008 00000-0 58757-4 0 9990 2 39135 64.8670 256.8022 0040594 282.3353 77.3230 15.17743274363855 BEESAT-2 1 39136U 13015G 19325.82175305 .00001122 00000-0 65722-4 0 9995 2 39136 64.8690 259.2832 0030373 287.3939 72.3866 15.17159883363850 ZACUBE-1 1 39417U 13066B 19325.01822118 .00000208 00000-0 32543-4 0 9994 2 39417 97.5617 329.7863 0057581 244.0886 115.4386 14.81180521324038 TRITON-1 1 39427U 13066M 19325.14917481 .00000247 00000-0 47114-4 0 9990 2 39427 97.6971 293.0884 0114511 28.4123 332.3262 14.67908352321140 GOMX-1 1 39430U 13066Q 19325.75262713 .00000170 00000-0 39379-4 0 9991 2 39430 97.7661 272.1768 0152016 121.8790 239.7318 14.59310745319367 LO-74 1 39440U 13066AA 19325.21065446 .00000234 00000-0 39674-4 0 9996 2 39440 97.6127 314.5487 0078947 300.3497 58.9923 14.75919296322913 AO-73 1 39444U 13066AE 19325.67513826 .00000279 00000-0 40693-4 0 9992 2 39444 97.5583 332.4943 0056812 234.9149 124.6731 14.82013256323032 SPROUT 1 39770U 14029E 19325.36634036 .00000545 00000-0 66151-4 0 9990 2 39770 97.8922 67.7177 0007923 299.3094 60.7314 14.87509057297978 DUCHIFAT-1 1 40021U 14033M 19325.74365836 .00000537 00000-0 60490-4 0 9998 2 40021 97.9294 250.8789 0011501 255.0537 104.9408 14.90741571294799 NANOSATCBR1 1 40024U 14033Q 19325.24899160 .00000302 00000-0 37288-4 0 9997 2 40024 97.9170 247.3926 0010761 261.1384 98.8615 14.89937751294600 EO-79 1 40025U 14033R 19325.00270849 .00000301 00000-0 38002-4 0 9993 2 40025 97.9074 244.4281 0011023 269.2165 90.7789 14.89023199294430 DTUSAT-2 1 40030U 14033W 19325.24324149 .00000257 00000-0 33583-4 0 9997 2 40030 97.8977 242.5561 0010445 263.6870 96.3157 14.88609040294395 EO-80 1 40032U 14033Y 19325.25466983 .00000277 00000-0 35789-4 0 9995 2 40032 97.8985 242.5688 0010414 264.5419 95.4610 14.88554299294389 ANTELSAT 1 40034U 14033AA 19325.21364381 .00000213 00000-0 39026-4 0 9990 2 40034 97.7373 185.6010 0057808 315.6734 43.9854 14.74166127291584 VELOX-1 1 40057U 14034E 19325.75617780 .00000294 00000-0 48610-4 0 9997 2 40057 98.2544 92.3933 0012148 94.0619 266.1978 14.77750494290811 DAURIA DX 1 1 40071U 14037C 19325.86405076 .00000068 00000-0 16251-4 0 9996 2 40071 98.4436 127.9118 0009603 85.4659 274.7655 14.81309898290370 UKUBE-1 1 40074U 14037F 19325.84674892 .00000239 00000-0 35786-4 0 9995 2 40074 98.4493 136.8285 0005898 74.9739 285.2163 14.84137983290811 HODOYOSHI-1 1 40299U 14070B 19325.85031413 .00000455 00000-0 21936-4 0 9990 2 40299 97.3380 42.2809 0012100 205.9863 291.1247 15.23521363280049 CHUBUSAT-1 1 40300U 14070C 19325.79812030 .00000477 00000-0 23665-4 0 9993 2 40300 97.3124 35.9237 0018757 225.4351 275.0311 15.22255558279764 QSAT-EOS 1 40301U 14070D 19325.83239495 .00001396 00000-0 56113-4 0 9992 2 40301 97.3150 39.8720 0024841 203.6687 291.3413 15.26328767280106 FIREBIRD FU3 1 40377U 15003B 19325.27638258 .00002176 00000-0 88440-4 0 9995 2 40377 99.1190 337.5006 0124688 292.2659 66.5386 15.19315560265542 FIREBIRD FU4 1 40378U 15003C 19325.65777450 .00002226 00000-0 90248-4 0 9991 2 40378 99.1190 338.0460 0124914 290.8683 67.9209 15.19331266265603 GRIFEX 1 40379U 15003D 19325.66557804 .00001782 00000-0 79149-4 0 9995 2 40379 99.1222 331.1680 0133511 312.0764 46.9168 15.15864455265213 NO-84 1 40654U 15025D 19324.27336662 .00010374 00000 0 13690-3 0 7800 2 40654 54.9876 186.4129 0129064 5.7278 354.5196 15.49830224136395 DEORBITSAIL 1 40719U 15032E 19325.22351714 .00000379 00000-0 61099-4 0 9995 2 40719 97.8899 213.7304 0016520 159.4222 200.7657 14.76845164235218 NUDT-PHONESAT 1 40900U 15049B 19325.87837631 .00001845 00000-0 80656-4 0 9992 2 40900 97.4364 333.7206 0012759 4.6290 67.7890 15.23297090231435 XW-2A 1 40903U 15049E 19325.84378150 .00001418 00000-0 34839-4 0 9996 2 40903 97.3189 9.3632 0012159 305.6212 163.9702 15.42336019234310 XW-2C 1 40906U 15049H 19325.73422618 .00000710 00000-0 40518-4 0 9991 2 40906 97.4726 325.2807 0015474 24.3179 86.6720 15.15830782230633 XW-2D 1 40907U 15049J 19325.81790667 .00000482 00000-0 28512-4 0 9999 2 40907 97.4707 325.0468 0014817 21.0666 56.9243 15.16030924230663 LILACSAT-2 1 40908U 15049K 19325.85075351 .00000380 00000-0 24541-4 0 9995 2 40908 97.4848 323.7201 0016663 28.1958 56.6648 15.13896077230430 XW-2E 1 40909U 15049L 19325.87882870 .00000929 00000-0 48893-4 0 9995 2 40909 97.4630 328.2124 0013890 15.6717 68.7627 15.18033222230887 XW-2F 1 40910U 15049M 19325.82709427 .00000753 00000-0 40803-4 0 9996 2 40910 97.4660 327.2995 0014975 12.9759 65.7211 15.17543920230693 XW-2B 1 40911U 15049N 19325.85909103 .00000789 00000-0 44531-4 0 9994 2 40911 97.4724 325.7627 0014751 21.9503 62.8347 15.15962389230565 DCBB 1 40912U 15049P 19325.81670753 .00000991 00000-0 49289-4 0 9997 2 40912 97.4504 331.1762 0014788 354.0450 82.9470 15.19888589231029 TW-1C 1 40926U 15051B 19325.74533771 .00011933 00000-0 15425-3 0 9997 2 40926 97.1163 11.8609 0008532 140.8641 314.6080 15.59045154234445 TW-1A 1 40928U 15051D 19325.78437376 .00002131 00000-0 52652-4 0 9991 2 40928 97.1314 353.5837 0009554 220.4184 256.2394 15.41547424233217 IO-86 1 40931U 15052B 19324.69785557 -.00020420 00000-0 -29507-2 0 9996 2 40931 5.9963 31.2247 0013118 192.9224 166.9491 14.76583141224210 LQSat 1 40958U 15057A 19325.24962188 .00000003 00000-0 80710-5 0 9998 2 40958 97.8823 30.1044 0019570 101.5712 258.7694 14.73096983221709 AO-85 1 40967U 15058D 19324.48101002 .00000217 00000 0 43005-4 0 8714 2 40967 64.7766 48.3466 0181490 151.5233 209.5936 14.76030790130586 ATHENOXAT-1 1 41168U 15077C 19325.74097397 .00001969 00000-0 68430-4 0 9996 2 41168 14.9872 152.2311 0011289 104.3736 255.7839 15.13928299217663 ChubuSat-2 1 41338U 16012B 19325.85340618 .00000302 00000-0 16680-4 0 9994 2 41338 31.0027 232.3061 0013922 210.6289 149.3534 15.00211061206381 ChubuSat-3 1 41339U 16012C 19325.80482664 .00000268 00000-0 13996-4 0 9996 2 41339 31.0118 230.5093 0013820 218.2204 141.7452 15.00382011206374 Horyu-4 1 41340U 16012D 19325.81519705 .00000439 00000-0 26507-4 0 9998 2 41340 31.0043 220.3268 0014154 238.3765 121.5490 15.01361943206493 OUFTI-1 1 41458U 16025C 19325.73020517 .00002283 00000-0 11857-3 0 9991 2 41458 98.1010 60.5205 0165247 191.7981 167.9354 15.06216633196051 [email protected] 1 41459U 16025D 19325.85140239 .00001386 00000-0 74261-4 0 9991 2 41459 98.1003 60.2144 0166786 192.9440 166.7465 15.05824288196044 AAUSAT4 1 41460U 16025E 19325.69228058 .00002617 00000-0 13296-3 0 9999 2 41460 98.0963 61.7035 0156343 184.7680 175.2093 15.07861718196175 LO-87 1 41557U 16033B 19325.77286466 .00001270 00000-0 49754-4 0 9994 2 41557 97.4135 52.3522 0015333 105.0507 255.2430 15.27544606193919 NuSat2 1 41558U 16033C 19325.80865551 .00001424 00000-0 52375-4 0 9991 2 41558 97.4171 53.9487 0014369 104.2212 256.0626 15.29471215193990 Lapan A3 1 41603U 16040E 19325.89386079 .00000088 00000-0 72194-5 0 9999 2 41603 97.3409 20.5795 0012527 206.3461 261.8949 15.19766885189468 Swayam 1 41607U 16040J 19325.13587760 .00001563 00000-0 68002-4 0 9991 2 41607 97.3477 24.1574 0012794 197.6522 162.4272 15.23668737189544 Pratham 1 41783U 16059A 19325.19385401 .00000054 00000-0 19683-4 0 9995 2 41783 98.0485 21.1832 0032317 254.2449 105.5188 14.63021585168280 AlSat 1N 1 41789U 16059G 19325.66465892 .00000071 00000-0 22529-4 0 9998 2 41789 98.0513 23.9837 0027222 241.2080 118.6395 14.64277309168473 ScatSat 1 41790U 16059H 19325.64643558 .00000021 00000-0 16160-4 0 9994 2 41790 98.1906 6.8204 0004880 191.4259 168.6826 14.50894877166943 TY-1 1 41844U 16066D 19325.86456164 .00000799 00000-0 35346-4 0 9990 2 41844 97.4057 331.4147 0015388 5.1515 91.5739 15.24504123168488 Pegasus-1 1 41846U 16066F 19324.60055120 .00000230 00000-0 44422-4 0 9995 2 41846 098.6932 007.1321 0368176 137.6967 225.3251 14.37651891158814 CAS-2T 1 41847U 16066G 19325.12323049 .00000066 00000-0 19696-4 0 9994 2 41847 98.6868 8.1812 0366719 132.3258 230.9622 14.38021022159335 EO-88 1 42017U 17008BX 19325.66137754 .00001583 00000-0 64537-4 0 9995 2 42017 97.3869 31.0331 0005793 355.3153 4.8030 15.25911032153708 nSIGHT1 1 42726U 98067MF 19325.20981055 .00040516 00000-0 22174-3 0 9996 2 42726 51.6323 229.4509 0005032 87.7192 272.4385 15.79399628142320 CAS-4B 1 42759U 17034B 19325.76486884 .00000170 00000-0 23867-4 0 9991 2 42759 43.0192 93.5283 0010451 159.1715 353.3493 15.09685095134420 CAS-4A 1 42761U 17034D 19325.78592766 .00000077 00000-0 18155-4 0 9993 2 42761 43.0185 92.8485 0010690 160.0393 351.2843 15.09762168134422 UCLSat 1 42765U 17036A 19325.19840882 .00001255 00000-0 56148-4 0 9992 2 42765 97.3322 19.7403 0012600 49.0910 311.1416 15.23049068134135 NIUSat 1 42766U 17036B 19325.20381806 .00000947 00000-0 45199-4 0 9992 2 42766 97.3316 17.7756 0016570 40.1546 320.0911 15.21351816133879 LituanicaSAT 2 1 42768U 17036D 19325.22892728 .00002005 00000-0 87239-4 0 9994 2 42768 97.3364 19.4821 0015789 38.7410 321.4956 15.23294204133985 Aalto 1 1 42775U 17036L 19325.60329642 .00000797 00000-0 38309-4 0 9994 2 42775 97.3301 18.5105 0014886 39.0758 321.1550 15.21539427133912 URSA MAIOR 1 42776U 17036M 19325.22090731 .00000829 00000-0 39594-4 0 9990 2 42776 97.3313 18.3392 0014732 40.2605 319.9720 15.21689833133862 Max Valier Sat 1 42778U 17036P 19325.26674804 .00000947 00000-0 44075-4 0 9996 2 42778 97.3358 19.3579 0013332 44.3412 315.8889 15.22258519133907 Pegasus 1 42784U 17036V 19325.24905371 .00001121 00000-0 50863-4 0 9994 2 42784 97.3326 19.5581 0013171 49.3045 310.9334 15.22777462133939 NUDATSat 1 42787U 17036Y 19325.40548497 .00001500 00000-0 64926-4 0 9993 2 42787 97.3359 20.6670 0013108 42.7955 317.4300 15.23878979133859 SUCHAI 1 1 42788U 17036Z 19325.21159151 .00001335 00000-0 59206-4 0 9999 2 42788 97.3332 19.9321 0012699 48.6780 311.5548 15.23244270134020 SKCUBE 1 42789U 17036AA 19324.84431543 .00001256 00000-0 56052-4 0 9994 2 42789 097.3328 019.4830 0012610 050.0337 310.2005 15.23121437133880 VZLUSAT 1 1 42790U 17036AB 19324.86759869 .00001709 00000-0 73615-4 0 9999 2 42790 097.3347 020.1370 0012099 048.9324 311.2956 15.23868022133923 VENTA 1 1 42791U 17036AC 19324.88315838 .00001253 00000-0 55936-4 0 9996 2 42791 097.3326 019.5709 0012269 050.5163 309.7157 15.23125638133887 Robusta 1B 1 42792U 17036AD 19325.21744566 .00001260 00000-0 55959-4 0 9992 2 42792 97.3329 20.0364 0012158 49.6350 310.5946 15.23300950133966 D-SAT 1 42794U 17036AF 19325.08843847 .00000175 00000-0 20724-4 0 9997 2 42794 97.5211 2.7992 0125914 344.2924 15.4403 14.91171348131496 TechnoSat 1 42829U 17042E 19325.77885394 .00000230 00000-0 28573-4 0 9994 2 42829 97.5437 211.9875 0012736 259.6840 100.2943 14.91025115128197 QIKCOM-1 1 42983U 98067NF 19325.50403679 .00003978 00000-0 54752-4 0 9994 2 42983 51.6390 277.4635 0003964 2.9677 357.1338 15.59881423117655 AO-91 1 43017U 17073E 19325.71800394 .00000971 00000-0 80751-4 0 9997 2 43017 97.7235 240.9715 0258126 10.6277 350.0245 14.78704790108314 EcAMSat 1 43019U 98067NG 19325.39343219 .00006858 00000-0 79663-4 0 9993 2 43019 51.6402 270.0330 0003913 347.7696 12.3203 15.63053911200063 PICSAT 1 43132U 18004X 19325.67248994 .00001372 00000-0 59705-4 0 9998 2 43132 97.4728 33.0719 0011184 71.1070 289.1379 15.23907137103254 AO-92 1 43137U 18004AC 19325.67837310 .00001050 00000-0 46652-4 0 9999 2 43137 97.4718 33.0087 0010812 72.9046 287.3374 15.23724571103248 TianYi 2 1 43155U 18008A 19325.88191834 .00001022 00000-0 64186-4 0 9991 2 43155 97.4727 35.0315 0018521 143.1533 341.5766 15.11341632101416 Zhou Enlai 1 43156U 18008B 19325.90169323 .00000356 00000-0 25154-4 0 9994 2 43156 97.4766 34.9226 0015851 140.4256 279.9950 15.10852255101386 TianYi 6 1 43158U 18008D 19325.67567583 .00001021 00000-0 65771-4 0 9999 2 43158 97.4732 34.0146 0015238 140.8921 11.8019 15.10425458101307 S-Net G 1 43186U 18014G 19324.86597416 -.00000133 00000-0 -65406-5 0 9996 2 43186 097.7009 230.9765 0010429 200.6118 159.4684 14.96708878098341 S-Net H 1 43187U 18014H 19325.33377474 -.00000077 00000-0 -16512-5 0 9991 2 43187 97.7007 231.4213 0010461 198.8666 161.2169 14.96708975 98411 S-Net J 1 43188U 18014J 19325.26675014 -.00000091 00000-0 -28886-5 0 9998 2 43188 97.7010 231.3773 0010450 199.2191 160.8638 14.96708713 98407 S-Net K 1 43189U 18014K 19325.26710525 -.00000081 00000-0 -20482-5 0 9999 2 43189 97.7006 231.3523 0010481 199.0510 161.0321 14.96708292 96955 FMN 1 1 43192U 18015A 19325.89760601 .00001840 00000-0 76832-4 0 9994 2 43192 97.4189 91.9080 0017561 103.6383 354.8157 15.24795339100114 Shaonian Xing 1 43199U 18015H 19325.86198227 .00001414 00000-0 59021-4 0 9995 2 43199 97.3971 90.6595 0018541 112.9192 346.1558 15.25173026100164 1KUNS-PF 1 43466U 98067NP 19325.83057675 .00037447 00000-0 26950-3 0 9994 2 43466 51.6347 258.5164 0002613 91.4057 268.7241 15.73205984 87436 UBAKUSAT 1 43467U 98067NQ 19325.27804558 .00015731 00000-0 15185-3 0 9993 2 43467 51.6354 270.6192 0000992 4.7901 355.3104 15.66664991 87232 Irazu 1 43468U 98067NR 19325.83557524 .00075041 00000-0 38807-3 0 9990 2 43468 51.6350 250.2140 0003421 113.9821 246.1540 15.80394986187535 EnduroSat One 1 43551U 98067NZ 19325.11972950 .00023753 00000-0 21601-3 0 9995 2 43551 51.6354 273.3111 0005626 34.7062 325.4301 15.67815887 77416 EQUISat 1 43552U 98067PA 19325.26194590 .00015665 00000-0 15809-3 0 9994 2 43552 51.6372 275.8126 0005905 28.2163 331.9152 15.65537770 77359 UiTMSat 1 1 43589U 98067PD 19325.29734902 .00018797 00000-0 18372-3 0 9991 2 43589 51.6342 275.9516 0005590 38.5310 321.6083 15.66190465 73091 Maya 1 1 43590U 98067PE 19324.90798346 .00018712 00000-0 18294-3 0 9992 2 43590 051.6346 277.8587 0005546 038.2242 321.9146 15.66186985072968 Bhutan 1 1 43591U 98067PF 19325.27553603 .00017923 00000-0 17491-3 0 9990 2 43591 51.6352 275.8510 0005861 38.7566 321.3849 15.66265623 73023 SiriusSat 1 1 43595U 98067PG 19325.29027951 .00016721 00000-0 17107-3 0 9997 2 43595 51.6347 278.1647 0002956 13.2708 346.8365 15.65144489 72171 SiriusSat 2 1 43596U 98067PH 19325.27311685 .00016402 00000-0 16903-3 0 9995 2 43596 51.6358 278.8533 0003387 8.4784 351.6268 15.64976782 72167 Tanusha-3 1 43597U 98067PJ 19325.25593167 .00024519 00000-0 22163-3 0 9994 2 43597 51.6335 274.8907 0003524 34.5421 325.5804 15.67954440 72217 SurfSat 1 43614U 18070B 19325.70664020 .00002985 00000-0 79162-4 0 9992 2 43614 93.0382 68.1657 0018126 68.1633 292.1547 15.38218356 66388 CP-7 DAVE 1 43615U 18070C 19325.26622557 .00002514 00000-0 66929-4 0 9998 2 43615 93.0384 67.9813 0018287 69.1299 291.1911 15.38112092 66316 ELFIN-B 1 43616U 18070D 19325.71926839 .00003754 00000-0 96855-4 0 9997 2 43616 93.0345 68.0760 0018882 70.2427 290.0861 15.39030497 66405 ELFIN-A 1 43617U 18070E 19325.70687827 .00004263 00000-0 10969-3 0 9995 2 43617 93.0400 68.4085 0018048 67.5093 292.8069 15.39127444 66403 STARS-Me Mother 1 43640U 98067PQ 19325.26172656 .00009681 00000-0 11897-3 0 9995 2 43640 51.6364 285.5255 0004452 335.6376 24.4407 15.61003182 64002 CubeBel 1 1 43666U 18083E 19325.87992145 .00000824 00000-0 43987-4 0 9999 2 43666 97.5092 349.2236 0015451 11.9579 92.2105 15.17840434 58971 Changshagaoxin 1 43669U 18083H 19325.79536163 .00000796 00000-0 43682-4 0 9997 2 43669 97.4958 347.9706 0010989 7.6944 352.4456 15.16982509 58890 Ten-Koh 1 43677U 18084G 19325.33604954 .00000243 00000-0 30857-4 0 9998 2 43677 97.8661 78.1890 0017236 125.9029 234.3791 14.90217911 57798 PO-101 1 43678U 18084H 19325.71212225 .00000186 00000-0 24192-4 0 9998 2 43678 97.8661 79.4264 0010814 140.9322 219.2671 14.91588902 57900 IRVINE 01 1 43693U 18088D 19325.21057824 .00002259 00000-0 96944-4 0 9993 2 43693 85.0382 215.3839 0017913 348.6240 11.4594 15.21965951 57013 QO-100 1 43700U 18090A 19325.59584015 .00000143 00000-0 00000 0 0 9996 2 43700 0.0164 292.0047 0001787 344.5834 24.0756 1.00274520 3856 Reaktor Hello World 1 43743U 18096AA 19325.89120831 .00001062 00000-0 42823-4 0 9999 2 43743 97.4449 35.6140 0019094 140.8271 339.1923 15.26927034 54564 MinXSS-2 1 43758U 18099A 19325.18743533 .00000037 00000-0 85335-5 0 9997 2 43758 97.7311 35.2887 0016078 164.0073 196.1658 14.95511184 52678 AO-95 1 43770U 18099N 19325.67262773 .00000608 00000-0 60975-4 0 9993 2 43770 97.7309 35.4291 0015046 168.4180 191.7389 14.94854380 52726 RANGE-B 1 43772U 18099Q 19325.18060287 .00000069 00000-0 11542-4 0 9994 2 43772 97.7370 35.2335 0014791 157.9236 202.2625 14.94995527 52645 RANGE-A 1 43773U 18099R 19325.19411153 .00000104 00000-0 14791-4 0 9997 2 43773 97.7256 34.7491 0014205 157.5790 202.6054 14.94866126 52649 MOVE-II 1 43780U 18099Y 19325.20565023 .00000814 00000-0 79185-4 0 9999 2 43780 97.7303 35.0626 0014133 167.8068 192.3497 14.95194450 52647 SNUSat 2 1 43782U 18099AA 19325.20346215 .00000463 00000-0 47358-4 0 9998 2 43782 97.7305 35.1028 0013486 156.9487 203.2342 14.95130222 52651 SnugLite 1 43784U 18099AC 19325.18475340 -.00000077 00000-0 -17897-5 0 9998 2 43784 97.7272 34.9713 0015530 165.6503 194.5161 14.95219952 52662 ITASat 1 1 43786U 18099AE 19325.18282627 -.00000160 00000-0 -92695-5 0 9996 2 43786 97.7326 35.2147 0015634 164.6034 195.5665 14.95213278 52667 EAGLET 1 1 43790U 18099AJ 19325.16087013 .00000478 00000-0 48193-4 0 9994 2 43790 97.7318 35.3549 0013836 167.9739 192.1815 14.95590474 52363 ESEO 1 43792U 18099AL 19325.16052361 .00000282 00000-0 30611-4 0 9993 2 43792 97.7296 35.2682 0013700 164.8520 195.3114 14.95547208 52422 CSIM 1 43793U 18099AM 19325.19003581 .00000302 00000-0 32172-4 0 9994 2 43793 97.7266 35.1973 0013672 164.0949 196.0704 14.95835960 52403 Astrocast 0.1 1 43798U 18099AS 19325.17521028 -.00000224 00000-0 -14893-4 0 9993 2 43798 97.7306 35.4309 0013178 148.8088 211.3918 14.95783638 52664 JO-97 1 43803U 18099AX 19325.82237119 .00000685 00000-0 67144-4 0 9993 2 43803 97.7285 35.7197 0015747 162.5902 197.5862 14.95364112 52752 Suomi 100 1 43804U 18099AY 19325.15294414 .00000741 00000-0 72260-4 0 9999 2 43804 97.7284 35.0550 0015790 164.9127 195.2568 14.95358887 52661 Al Farabi 2 1 43805U 18099AZ 19325.81053678 .00000866 00000-0 83367-4 0 9996 2 43805 97.7286 35.7389 0015917 163.2318 196.9432 14.95439041 52767 PWSat 2 1 43814U 18099BJ 19325.37301448 .00016500 00000-0 11970-2 0 9999 2 43814 97.7740 38.5022 0012056 167.4393 192.7129 15.03935079 52216 CHOMPTT 1 43855U 18104G 19325.46929690 .00000951 00000-0 38937-4 0 9993 2 43855 85.0348 313.4356 0019859 98.4422 261.9072 15.22607895 51728 ISAT 1 43879U 18111D 19325.76871050 .00000707 00000-0 67959-4 0 9991 2 43879 97.7098 231.4309 0012032 217.2667 142.7720 14.96090262 47276 UWE-4 1 43880U 18111E 19325.18028244 .00000099 00000-0 13888-4 0 9994 2 43880 97.7109 231.0152 0011101 220.6113 139.4281 14.96330646 47204 Sparrow 1 43881U 18111F 19325.17011733 .00000628 00000-0 60566-4 0 9992 2 43881 97.7114 231.0458 0011257 218.5325 141.5093 14.96377656 47198 Lume 1 1 43908U 18111AJ 19325.23470486 .00001001 00000-0 43186-4 0 9998 2 43908 97.2786 226.1523 0021978 158.1624 202.0556 15.24613347 50146 FO-98 1 43933U 19003B 19325.86169793 .00000558 00000-0 27464-4 0 9999 2 43933 97.2624 18.2329 0016308 255.5803 214.7270 15.21822383 46801 FO-99 1 43937U 19003F 19325.86820295 .00001058 00000-0 46436-4 0 9990 2 43937 97.2574 18.9235 0022799 239.6137 238.7696 15.23891554 46868 Delphini 1 1 44030U 98067PW 19325.16258610 .00014512 00000-0 18392-3 0 9999 2 44030 51.6363 291.6244 0004981 23.7701 336.3521 15.59713448 45781 MYSat 1 1 44045U 18092F 19325.42723228 .00002233 00000-0 74427-4 0 9995 2 44045 51.6464 336.3892 0010815 287.1950 72.7855 15.35607634 43164 AstroCast 0.2 1 44083U 19018F 19325.81114544 .00000633 00000-0 31166-4 0 9999 2 44083 97.4503 24.4090 0014048 175.8516 184.2839 15.21525195 35658 AISTechSat 3 1 44103U 19018AB 19325.70122867 .00000651 00000-0 30785-4 0 9993 2 44103 97.4379 24.3537 0013061 193.5589 265.3718 15.22839970 35666 AISat 1 1 44104U 19018AC 19325.39817947 .00000958 00000-0 33489-4 0 9993 2 44104 97.4918 28.4776 0057411 233.8333 125.7590 15.30700744 35828 Raavana-1 1 44329U 98067QE 19325.32339639 .00008011 00000-0 12830-3 0 9997 2 44329 51.6399 299.4835 0006185 310.0339 50.0108 15.54082670 24442 Uguisu 1 44330U 98067QF 19325.19888015 .00007897 00000-0 12680-3 0 9995 2 44330 51.6402 300.1511 0006136 307.7971 52.2464 15.54033653 24403 NepaliSat-1 1 44331U 98067QG 19325.77002388 .00009404 00000-0 14909-3 0 9993 2 44331 51.6402 297.2170 0006225 312.8204 47.2262 15.54125828 24503 Prox-1 1 44339U 19036A 19325.32564232 .00000787 00000-0 13802-3 0 9998 2 44339 24.0046 347.5002 0010956 31.0960 329.0172 14.52743545 21683 OBJECT H 1 44346U 19036H 19325.32362576 .00234256 00000-0 36226-2 0 9997 2 44346 28.5296 311.5511 0374001 242.3893 113.8158 15.00651612 22354 OBJECT J 1 44347U 19036J 19324.98007518 .00031354 00000-0 47367-3 0 9994 2 44347 028.5311 309.8000 0359002 245.0934 111.1977 15.04164669022340 OBJECT K 1 44348U 19036K 19325.42313862 .00008394 00000-0 12699-3 0 9995 2 44348 28.5222 310.3450 0382819 244.1103 111.9552 14.98603716 22371 Armadillo 1 44352U 19036P 19324.30537606 .00011975 00000-0 18436-3 0 9994 2 44352 28.5355 317.0382 0377683 233.0162 123.5283 14.99591494 22152 NO-104 1 44354U 19036R 19325.28218339 .00010162 00000-0 15325-3 0 9994 2 44354 28.5343 310.2866 0380126 243.6235 112.4855 14.99401073 22343 NO-103 1 44355U 19036S 19324.33688655 .00015725 00000-0 23720-3 0 9990 2 44355 28.5344 315.2949 0372676 235.5014 120.9843 15.01203131 22214 Oculus-ASR 1 44356U 19036T 19324.36640072 .00039425 00000-0 53815-3 0 9996 2 44356 028.5274 310.5529 0354496 243.0500 113.3462 15.07260596022276 CP9 1 44360U 19036X 19324.34033045 .00024126 00000-0 32200-3 0 9992 2 44360 28.5206 312.1334 0370877 240.8822 115.4152 15.04311489 22129 Move-IIb 1 44398U 19038N 19325.96765758 .00000898 00000-0 55924-4 0 9996 2 44398 97.5076 285.3008 0025879 122.6881 237.6708 15.11854097 21073 SONATE 1 44400U 19038Q 19325.24086359 .00000594 00000-0 38347-4 0 9997 2 44400 97.5105 284.6007 0026678 124.2074 236.1690 15.11744648 20962 BeeSat 9 1 44412U 19038AC 19325.42518517 .00000838 00000-0 52357-4 0 9994 2 44412 97.5097 284.8082 0024124 128.8154 231.5235 15.11946249 20687 JAISAT-1 1 44419U 19038F 19325.11527740 .00000840 00000-0 51817-4 0 9998 2 44419 97.5101 284.6099 0022974 129.3615 230.9655 15.12433538 20957 LightSail-2 1 44420U 19036AC 19325.15801965 .00002078 00000-0 43617-3 0 9999 2 44420 24.0102 348.1777 0021262 28.9503 331.2125 14.53675516 19800 Taurus 1 1 44530U 19059C 19325.66786905 .00000133 00000-0 50612-4 0 9992 2 44530 98.5825 39.6837 0015461 67.0121 293.2689 14.45273980 10187 /EX